PROGRESS-MS 01

Last updated on July 4, 2016, 1:37 a.m. UTC

1 41177U 15080A   16184.58332571 -.00122719  00000-0 -18418-2 0  9996
2 41177  51.6421 341.2326 0001136  52.2154  37.6872 15.54623388 30227

Satellite is not in orbit.